Weather Roundup
Issued by NWS

Home | Current Version | Previous Version | Graphics & Text | Print | Product List | Glossary Off
Versions: 1 2 3 4 5 6 7 8 9 10 11 12 13 14 15 16 17 18 19 20 21 22 23 24 25 26 27 28 29 30 31 32 33 34 35 36 37 38 39 40 41 42 43 44 45 46 47 48 49 50

000
NZUS93 KARX 240110
HRRWXR

CURRENT HOURLY OBSERVATIONS ACROSS
MUCH OF THE UPPER MISSISSIPPI VALLEY
NATIONAL WEATHER SERVICE LA CROSSE WI
800 PM CDT SAT MAY 23 2015


...SOUTHEAST MINNESOTA...


CITY           SKY/WX    TMP DP  RH WIND       PRES   REMARKS
ROCHESTER      CLOUDY    71  46  40 S8        30.14S
ROCHESTER/MAYO CLOUDY    73  44  35 SE6       30.12F
WINONA         MOCLDY    70  50  49 SE3       30.13S
AUSTIN         MOCLDY    70  46  43 SE6       30.12S
ALBERT LEA     MOCLDY    68  52  56 S3        30.12S
DODGE CENTER   CLOUDY    72  46  40 S7        30.13S
PRESTON        MOCLDY    68  46  45 S7        30.15S
OWATONNA       CLOUDY    72  46  40 S3        30.12S
FARIBAULT      CLOUDY    72  46  40 SW6       30.12S
$$

...ELSEWHERE IN MINNESOTA...


CITY           SKY/WX    TMP DP  RH WIND       PRES   REMARKS
MINNEAPOLIS    CLOUDY    66  46  48 NE13      30.13F
INTNL FALLS    CLEAR     73  37  27 W5        30.07S
DULUTH         PTCLDY    68  43  40 SW14      30.15R
RED WING       MOCLDY    70  43  37 E5        30.11F
REDWOOD FALLS  CLOUDY    65  50  58 E9        30.09F
MANKATO        CLOUDY    70  48  46 S8        30.10F
WORTHINGTON    CLOUDY    64  46  52 SE7       30.09S
FAIRMONT       CLOUDY    66  46  48 SE9       30.11S
$$

...SOUTHWEST WISCONSIN...


CITY           SKY/WX    TMP DP  RH WIND       PRES   REMARKS
LA CROSSE      MOCLDY    74  46  36 SE6       30.12F
PRAIRIE DU CHI CLEAR     74  40  29 CALM      30.13F
BOSCOBEL       PTCLDY    75  44  33 CALM      30.14F
LONE ROCK      MOCLDY    72  45  37 S3        30.15F
PLATTEVILLE    MOCLDY    73  44  34 S6        30.16S
FORT MC COY    CLOUDY    72  45  37 CALM      30.15S
CAMP DOUGLAS   CLOUDY    69  54  59 MISG      30.14F
VIROQUA        FAIR      70  44  38 S6        30.16S
WIS DELLS      PTCLDY    70  38  31 S3        30.16S
$$

...ELSEWHERE IN WISCONSIN...


CITY           SKY/WX    TMP DP  RH WIND       PRES   REMARKS
MILWAUKEE      MOCLDY    62  39  42 SE6       30.20R
MADISON        CLOUDY    73  45  36 CALM      30.16F
GREEN BAY      PTCLDY    74  40  29 S7        30.17R
EAU CLAIRE     CLOUDY    69  47  45 NE3       30.14F
BLACK RVR FLS  CLOUDY    68  50  51 CALM      30.14F
MEDFORD        CLOUDY    66  44  45 CALM      30.18S
WAUSAU         MOCLDY    70  40  33 NW3       30.16S
WIS RAPIDS     MOCLDY    72  40  31 CALM      30.17S
MARSHFIELD     MOCLDY    70  42  36 CALM      30.17S
RICE LAKE      CLOUDY    64  49  58 CALM      30.18F
$$

...NORTHEAST IOWA...


CITY           SKY/WX    TMP DP  RH WIND       PRES   REMARKS
DECORAH        PTCLDY    72  46  40 VRB6      30.14S
MASON CITY     CLOUDY    71  46  40 SE14      30.12F
CHARLES CITY   CLOUDY    72  45  37 SE8       30.13S
OELWEIN        CLEAR     72  50  46 SE7       30.14S
$$

...ELSEWHERE IN IOWA...


CITY           SKY/WX    TMP DP  RH WIND       PRES   REMARKS
DES MOINES     CLOUDY    71  53  52 SE7       30.10S
IOWA CITY      PTCLDY    71  48  43 S7        30.14F
FORT DODGE     CLOUDY    66  52  59 CALM      30.11S
$$

...NORTHERN ILLINOIS...


CITY           SKY/WX    TMP DP  RH WIND       PRES   REMARKS
CHICAGO-OHARE  MOCLDY    72  43  35 E9        30.18S
CHICAGO-MIDWAY PTCLDY    73  44  35 E10       30.18F
MOLINE         MOCLDY    74  47  38 S7        30.14S
ROCKFORD       MOCLDY    72  42  34 S8        30.18F
PEORIA         CLOUDY    74  48  39 S7        30.17S
$$

NOTE: "FAIR" INDICATES FEW OR NO CLOUDS BELOW 12,000 FEET WITH NO
SIGNIFICANT WEATHER AND/OR OBSTRUCTIONS TO VISIBILITY. WIND
SPEEDS ARE IN MILES-PER-HOUR.



USA.gov is the U.S. government's official web portal to all federal, state and local government web resources and services.